| time (UTC) | temp F | wind direction | speed knots | gust knots | rain 1hr in | rain 24hr in | rain mn in | humidity % | barometer mb |
| 20260508230647 | 69 | 277 | 2.6 | 4.3 | 0.00 | 0.00 | 0.90 | 98 | 1011.5 |
| 20260508230148 | 69 | 59 | 3.5 | 6.1 | 0.00 | 0.00 | 0.90 | 98 | 1011.5 |
| 20260508225647 | 68 | 52 | 4.3 | 6.1 | 0.00 | 0.00 | 0.90 | 98 | 1011.5 |
| 20260508225149 | 68 | 135 | 5.2 | 7.0 | 0.02 | 0.00 | 0.90 | 98 | 1011.9 |
| 20260508224646 | 68 | 233 | 3.5 | 6.1 | 0.09 | 0.00 | 0.90 | 98 | 1011.9 |
| 20260508224147 | 68 | 200 | 0.9 | 7.8 | 0.24 | 0.00 | 0.89 | 98 | 1011.9 |
| 20260508223647 | 68 | 72 | 3.5 | 7.8 | 0.19 | 0.00 | 0.88 | 98 | 1011.9 |
| 20260508223146 | 68 | 39 | 1.7 | 7.8 | 0.05 | 0.00 | 0.85 | 98 | 1011.9 |
| 20260508222648 | 68 | 21 | 3.5 | 5.2 | 0.00 | 0.00 | 0.85 | 98 | 1011.9 |
| 20260508222147 | 68 | 289 | 1.7 | 7.0 | 0.00 | 0.00 | 0.85 | 98 | 1011.5 |
| 20260508221647 | 68 | 186 | 1.7 | 7.0 | 0.00 | 0.00 | 0.85 | 98 | 1011.9 |
| 20260508221151 | 68 | 10 | 4.3 | 8.7 | 0.00 | 0.00 | 0.85 | 98 | 1011.9 |
| 20260508220647 | 68 | 165 | 3.5 | 7.0 | 0.02 | 0.00 | 0.85 | 98 | 1011.9 |
| 20260508220147 | 68 | 64 | 6.1 | 9.6 | 0.07 | 0.00 | 0.85 | 98 | 1011.9 |
| 20260508215647 | 68 | 85 | 4.3 | 9.6 | 0.12 | 0.00 | 0.84 | 98 | 1011.9 |
| 20260508215148 | 68 | 73 | 7.0 | 11.3 | 0.05 | 0.00 | 0.83 | 98 | 1012.2 |
| 20260508214647 | 68 | 64 | 8.7 | 11.3 | 0.00 | 0.00 | 0.82 | 98 | 1012.5 |
| 20260508214147 | 68 | 40 | 3.5 | 7.8 | 0.00 | 0.00 | 0.82 | 98 | 1012.2 |
| 20260508213646 | 68 | 22 | 2.6 | 9.6 | 0.02 | 0.00 | 0.82 | 98 | 1012.9 |
| 20260508213148 | 68 | 49 | 6.1 | 12.2 | 0.02 | 0.00 | 0.82 | 98 | 1012.9 |
| 20260508212649 | 68 | 45 | 4.3 | 8.7 | 0.02 | 0.00 | 0.82 | 99 | 1012.9 |
| 20260508212146 | 68 | 19 | 5.2 | 12.2 | 0.07 | 0.00 | 0.82 | 99 | 1013.2 |
| 20260508211647 | 68 | 20 | 4.3 | 9.6 | 0.21 | 0.00 | 0.81 | 99 | 1013.2 |
| 20260508211148 | 68 | 56 | 5.2 | 12.2 | 0.59 | 0.00 | 0.81 | 99 | 1013.2 |
| 20260508210647 | 68 | 41 | 3.5 | 15.6 | 0.69 | 0.00 | 0.77 | 99 | 1013.2 |
| 20260508210148 | 68 | 20 | 9.6 | 11.3 | 0.57 | 0.00 | 0.71 | 98 | 1013.2 |
| 20260508205647 | 68 | 42 | 2.6 | 11.3 | 0.73 | 0.00 | 0.65 | 98 | 1013.9 |
| 20260508205149 | 68 | 342 | 10.4 | 11.3 | 1.16 | 0.00 | 0.61 | 98 | 1013.2 |
| 20260508204646 | 68 | 28 | 12.2 | 18.2 | 1.39 | 0.00 | 0.52 | 97 | 1012.5 |
| 20260508204146 | 68 | 30 | 11.3 | 15.6 | 1.91 | 0.00 | 0.41 | 97 | 1013.2 |
| 20260508203647 | 69 | 48 | 4.3 | 12.2 | 1.56 | 0.00 | 0.26 | 96 | 1012.5 |
| 20260508203146 | 69 | 28 | 7.8 | 15.6 | 0.31 | 0.00 | 0.05 | 93 | 1012.9 |
| 20260508202646 | 70 | 348 | 4.3 | 17.4 | 0.00 | 0.00 | 0.00 | 91 | 1012.5 |
| 20260508202147 | 70 | 37 | 7.8 | 23.5 | 0.00 | 0.00 | 0.00 | 90 | 1012.2 |
| 20260508201647 | 70 | 29 | 4.3 | 16.5 | 0.00 | 0.00 | 0.00 | 89 | 1011.9 |
| 20260508201147 | 70 | 58 | 7.0 | 20.9 | 0.00 | 0.00 | 0.00 | 89 | 1012.2 |
| 20260508200649 | 71 | 15 | 7.8 | 19.1 | 0.00 | 0.00 | 0.00 | 89 | 1011.9 |
| 20260508200147 | 72 | 43 | 7.8 | 16.5 | 0.00 | 0.00 | 0.00 | 88 | 1011.9 |
| 20260508195649 | 72 | 51 | 9.6 | 20.0 | 0.00 | 0.00 | 0.00 | 89 | 1012.2 |
| 20260508195149 | 73 | 35 | 7.8 | 14.8 | 0.00 | 0.00 | 0.00 | 88 | 1012.2 |
| 20260508194651 | 74 | 53 | 13.0 | 20.0 | 0.00 | 0.00 | 0.00 | 87 | 1012.2 |
| 20260508194148 | 75 | 52 | 8.7 | 15.6 | 0.00 | 0.00 | 0.00 | 87 | 1012.2 |
| 20260508193648 | 74 | 54 | 8.7 | 13.0 | 0.00 | 0.00 | 0.00 | 88 | 1012.5 |
| 20260508193146 | 74 | 27 | 7.8 | 11.3 | 0.00 | 0.00 | 0.00 | 88 | 1012.9 |
| 20260508192649 | 75 | 47 | 7.0 | 9.6 | 0.00 | 0.00 | 0.00 | 87 | 1012.9 |
| 20260508192153 | 75 | 69 | 6.1 | 10.4 | 0.00 | 0.00 | 0.00 | 87 | 1012.9 |
| 20260508191148 | 76 | 38 | 3.5 | 8.7 | 0.00 | 0.00 | 0.00 | 86 | 1012.9 |
| 20260508190647 | 76 | 50 | 3.5 | 12.2 | 0.00 | 0.00 | 0.00 | 85 | 1012.9 |
| 20260508190151 | 77 | 18 | 5.2 | 8.7 | 0.00 | 0.00 | 0.00 | 84 | 1012.9 |
| 20260508185646 | 77 | 34 | 5.2 | 9.6 | 0.00 | 0.00 | 0.00 | 84 | 1012.5 |
| 20260508185148 | 78 | 63 | 5.2 | 7.8 | 0.00 | 0.00 | 0.00 | 82 | 1012.5 |
| 20260508184647 | 78 | 58 | 4.3 | 12.2 | 0.00 | 0.00 | 0.00 | 82 | 1012.5 |
| 20260508184150 | 78 | 165 | 4.3 | 5.2 | 0.00 | 0.00 | 0.00 | 83 | 1012.2 |
| 20260508183649 | 78 | 129 | 4.3 | 10.4 | 0.00 | 0.00 | 0.00 | 83 | 1012.2 |
| 20260508183147 | 78 | 85 | 4.3 | 8.7 | 0.00 | 0.00 | 0.00 | 82 | 1012.2 |
| 20260508182647 | 77 | 81 | 6.1 | 7.0 | 0.00 | 0.00 | 0.00 | 83 | 1012.5 |
| 20260508182148 | 78 | 66 | 7.8 | 9.6 | 0.00 | 0.00 | 0.00 | 82 | 1012.5 |
| 20260508181650 | 78 | 59 | 5.2 | 7.8 | 0.00 | 0.00 | 0.00 | 81 | 1012.5 |
| 20260508181146 | 78 | 125 | 1.7 | 10.4 | 0.00 | 0.00 | 0.00 | 81 | 1012.5 |
| 20260508180648 | 78 | 114 | 2.6 | 8.7 | 0.00 | 0.00 | 0.00 | 81 | 1012.2 |
| 20260508180148 | 79 | 68 | 8.7 | 11.3 | 0.00 | 0.00 | 0.00 | 79 | 1012.5 |
| 20260508175649 | 79 | 62 | 3.5 | 8.7 | 0.00 | 0.00 | 0.00 | 80 | 1012.2 |
| 20260508175147 | 78 | 96 | 3.5 | 9.6 | 0.00 | 0.00 | 0.00 | 80 | 1012.2 |
| 20260508174652 | 78 | 39 | 3.5 | 9.6 | 0.00 | 0.00 | 0.00 | 80 | 1012.2 |
| 20260508174148 | 78 | 101 | 2.6 | 10.4 | 0.00 | 0.00 | 0.00 | 79 | 1012.5 |
| 20260508173647 | 78 | 79 | 7.0 | 8.7 | 0.00 | 0.00 | 0.00 | 80 | 1012.5 |
| 20260508173148 | 77 | 93 | 2.6 | 9.6 | 0.00 | 0.00 | 0.00 | 81 | 1012.9 |
| 20260508172647 | 78 | 72 | 7.8 | 11.3 | 0.00 | 0.00 | 0.00 | 80 | 1012.9 |
| 20260508172148 | 77 | 65 | 5.2 | 8.7 | 0.00 | 0.00 | 0.00 | 82 | 1012.9 |
| 20260508171648 | 77 | 60 | 7.0 | 8.7 | 0.00 | 0.00 | 0.00 | 82 | 1012.9 |
| 20260508171147 | 77 | 76 | 5.2 | 9.6 | 0.00 | 0.00 | 0.00 | 81 | 1012.9 |
| 20260508170650 | 78 | 43 | 3.5 | 11.3 | 0.00 | 0.00 | 0.00 | 81 | 1012.9 |
| 20260508170148 | 77 | 198 | 0.9 | 7.0 | 0.00 | 0.00 | 0.00 | 83 | 1012.9 |
| 20260508165649 | 78 | 165 | 1.7 | 7.8 | 0.00 | 0.00 | 0.00 | 81 | 1012.9 |
| 20260508165148 | 77 | 146 | 4.3 | 8.7 | 0.00 | 0.00 | 0.00 | 82 | 1013.2 |
| 20260508164651 | 77 | 171 | 2.6 | 6.1 | 0.00 | 0.00 | 0.00 | 83 | 1013.2 |
| 20260508164150 | 76 | 113 | 2.6 | 6.1 | 0.00 | 0.00 | 0.00 | 84 | 1012.9 |
| 20260508163651 | 76 | 93 | 4.3 | 7.8 | 0.00 | 0.00 | 0.00 | 84 | 1013.2 |
| 20260508162730 | 76 | 59 | 5.2 | 7.0 | 0.00 | 0.00 | 0.00 | 82 | 1013.2 |
| 20260508162149 | 75 | 137 | 3.5 | 7.0 | 0.00 | 0.00 | 0.00 | 85 | 1013.2 |
| 20260508161649 | 75 | 99 | 6.1 | 13.0 | 0.00 | 0.00 | 0.00 | 84 | 1013.2 |
| 20260508161149 | 75 | 71 | 5.2 | 11.3 | 0.00 | 0.00 | 0.00 | 85 | 1013.2 |
| 20260508160649 | 75 | 69 | 7.0 | 8.7 | 0.00 | 0.00 | 0.00 | 84 | 1013.2 |
| 20260508160149 | 75 | 66 | 7.8 | 9.6 | 0.00 | 0.00 | 0.00 | 85 | 1013.5 |
| 20260508155648 | 74 | 203 | 0.0 | 6.1 | 0.00 | 0.00 | 0.00 | 85 | 1013.5 |
| 20260508155148 | 75 | 75 | 4.3 | 4.3 | 0.00 | 0.00 | 0.00 | 85 | 1013.9 |
| 20260508154649 | 73 | 345 | 2.6 | 7.0 | 0.00 | 0.00 | 0.00 | 86 | 1013.9 |
| 20260508154149 | 73 | 69 | 3.5 | 8.7 | 0.00 | 0.00 | 0.00 | 86 | 1013.9 |
| 20260508153648 | 73 | 42 | 2.6 | 7.8 | 0.00 | 0.00 | 0.00 | 87 | 1013.9 |
| 20260508153148 | 73 | 62 | 6.1 | 8.7 | 0.00 | 0.00 | 0.00 | 87 | 1013.9 |
| 20260508152650 | 73 | 71 | 1.7 | 4.3 | 0.00 | 0.00 | 0.00 | 87 | 1013.9 |
| 20260508152149 | 72 | 138 | 1.7 | 7.0 | 0.00 | 0.00 | 0.00 | 88 | 1013.9 |
| 20260508151649 | 73 | 84 | 5.2 | 9.6 | 0.00 | 0.00 | 0.00 | 87 | 1013.5 |
| 20260508151147 | 73 | 91 | 3.5 | 5.2 | 0.00 | 0.00 | 0.00 | 87 | 1013.9 |
| 20260508150649 | 72 | 60 | 4.3 | 7.0 | 0.00 | 0.00 | 0.00 | 87 | 1013.5 |
| 20260508150151 | 72 | 73 | 4.3 | 9.6 | 0.00 | 0.00 | 0.00 | 88 | 1013.5 |
| 20260508145647 | 72 | 84 | 4.3 | 8.7 | 0.00 | 0.00 | 0.00 | 87 | 1013.9 |
| 20260508145149 | 72 | 55 | 4.3 | 7.8 | 0.00 | 0.00 | 0.00 | 86 | 1013.9 |
| 20260508144646 | 72 | 70 | 4.3 | 6.1 | 0.00 | 0.00 | 0.00 | 86 | 1013.9 |
| 20260508144146 | 72 | 65 | 6.1 | 9.6 | 0.00 | 0.00 | 0.00 | 85 | 1013.5 |
| 20260508143647 | 73 | 69 | 4.3 | 10.4 | 0.00 | 0.00 | 0.00 | 84 | 1013.5 |
| 20260508143147 | 72 | 64 | 6.1 | 11.3 | 0.00 | 0.00 | 0.00 | 85 | 1013.5 |
| 20260508142648 | 72 | 77 | 7.8 | 12.2 | 0.00 | 0.00 | 0.00 | 86 | 1013.5 |
| 20260508142148 | 72 | 61 | 7.8 | 7.8 | 0.00 | 0.00 | 0.00 | 85 | 1013.2 |
| 20260508141649 | 72 | 83 | 4.3 | 9.6 | 0.00 | 0.00 | 0.00 | 84 | 1013.5 |
| 20260508141149 | 72 | 63 | 8.7 | 9.6 | 0.00 | 0.00 | 0.00 | 85 | 1013.5 |
| 20260508140649 | 71 | 62 | 7.8 | 11.3 | 0.00 | 0.00 | 0.00 | 86 | 1013.5 |
| 20260508140150 | 71 | 78 | 5.2 | 6.1 | 0.00 | 0.00 | 0.00 | 86 | 1013.9 |
| 20260508135648 | 71 | 64 | 7.8 | 11.3 | 0.00 | 0.00 | 0.00 | 86 | 1013.5 |
| 20260508135147 | 71 | 62 | 6.1 | 7.8 | 0.00 | 0.00 | 0.00 | 86 | 1013.5 |
| 20260508134649 | 70 | 77 | 4.3 | 9.6 | 0.00 | 0.00 | 0.00 | 87 | 1013.5 |
| 20260508134149 | 70 | 82 | 4.3 | 12.2 | 0.00 | 0.00 | 0.00 | 87 | 1013.9 |
| 20260508133648 | 70 | 70 | 4.3 | 7.8 | 0.00 | 0.00 | 0.00 | 86 | 1013.9 |
| 20260508133149 | 70 | 65 | 5.2 | 10.4 | 0.00 | 0.00 | 0.00 | 86 | 1013.9 |
| 20260508132648 | 70 | 60 | 5.2 | 9.6 | 0.00 | 0.00 | 0.00 | 86 | 1013.9 |
| 20260508132149 | 70 | 37 | 6.1 | 7.0 | 0.00 | 0.00 | 0.00 | 87 | 1013.9 |
| 20260508131648 | 70 | 44 | 3.5 | 8.7 | 0.00 | 0.00 | 0.00 | 87 | 1013.9 |
| 20260508131148 | 70 | 49 | 5.2 | 10.4 | 0.00 | 0.00 | 0.00 | 87 | 1013.9 |
| 20260508130647 | 70 | 55 | 8.7 | 10.4 | 0.00 | 0.00 | 0.00 | 87 | 1013.9 |
| 20260508130151 | 70 | 40 | 3.5 | 5.2 | 0.00 | 0.00 | 0.00 | 88 | 1014.2 |
| 20260508125647 | 70 | 50 | 8.7 | 11.3 | 0.00 | 0.00 | 0.00 | 88 | 1014.2 |
| 20260508125148 | 70 | 24 | 6.1 | 10.4 | 0.00 | 0.00 | 0.00 | 88 | 1014.2 |
| 20260508124649 | 70 | 4 | 4.3 | 7.0 | 0.00 | 0.00 | 0.00 | 88 | 1014.6 |
| 20260508124146 | 70 | 40 | 7.8 | 12.2 | 0.00 | 0.00 | 0.00 | 87 | 1014.6 |
| 20260508123651 | 70 | 39 | 5.2 | 7.8 | 0.00 | 0.00 | 0.00 | 87 | 1014.6 |
| 20260508123149 | 70 | 348 | 3.5 | 5.2 | 0.00 | 0.00 | 0.00 | 87 | 1014.6 |
| 20260508122652 | 70 | 85 | 2.6 | 7.0 | 0.00 | 0.00 | 0.00 | 87 | 1014.2 |
| 20260508122149 | 70 | 41 | 5.2 | 8.7 | 0.00 | 0.00 | 0.00 | 88 | 1014.2 |
| 20260508121649 | 70 | 18 | 4.3 | 6.1 | 0.00 | 0.00 | 0.00 | 88 | 1014.2 |
| 20260508121149 | 70 | 54 | 6.1 | 7.8 | 0.00 | 0.00 | 0.00 | 88 | 1014.2 |
| 20260508120648 | 70 | 33 | 3.5 | 8.7 | 0.00 | 0.00 | 0.00 | 88 | 1014.2 |
| 20260508120149 | 70 | 29 | 0.0 | 10.4 | 0.00 | 0.00 | 0.00 | 87 | 1013.9 |
| 20260508115646 | 70 | 41 | 2.6 | 4.3 | 0.00 | 0.00 | 0.00 | 88 | 1013.2 |
| 20260508115147 | 70 | 27 | 2.6 | 9.6 | 0.00 | 0.00 | 0.00 | 88 | 1013.2 |
| 20260508114650 | 70 | 27 | 4.3 | 8.7 | 0.00 | 0.00 | 0.00 | 88 | 1013.5 |
| 20260508114148 | 70 | 57 | 3.5 | 7.0 | 0.00 | 0.00 | 0.00 | 88 | 1013.5 |
| 20260508113650 | 70 | 102 | 3.5 | 7.8 | 0.00 | 0.00 | 0.00 | 88 | 1013.5 |
| 20260508113149 | 70 | 67 | 7.0 | 7.8 | 0.00 | 0.00 | 0.00 | 89 | 1013.5 |
| 20260508112648 | 70 | 8 | 1.7 | 6.1 | 0.00 | 0.00 | 0.00 | 88 | 1013.9 |
| 20260508112149 | 70 | 52 | 0.9 | 5.2 | 0.00 | 0.00 | 0.00 | 89 | 1014.2 |
| 20260508111651 | 70 | 61 | 3.5 | 6.1 | 0.00 | 0.00 | 0.00 | 89 | 1014.2 |
| 20260508111150 | 70 | 0 | 2.6 | 5.2 | 0.00 | 0.00 | 0.00 | 89 | 1014.2 |
| 20260508110649 | 70 | 62 | 4.3 | 7.0 | 0.00 | 0.00 | 0.00 | 89 | 1014.6 |
| 20260508110149 | 70 | 22 | 3.5 | 6.1 | 0.00 | 0.00 | 0.00 | 89 | 1014.2 |
| 20260508105647 | 69 | 51 | 2.6 | 6.1 | 0.00 | 0.00 | 0.00 | 89 | 1013.9 |
| 20260508105147 | 70 | 59 | 3.5 | 8.7 | 0.00 | 0.00 | 0.00 | 89 | 1013.9 |
| 20260508104647 | 70 | 72 | 1.7 | 4.3 | 0.00 | 0.00 | 0.00 | 89 | 1013.9 |
| 20260508104150 | 70 | 30 | 1.7 | 6.1 | 0.00 | 0.00 | 0.00 | 89 | 1013.9 |
| 20260508103648 | 69 | 67 | 4.3 | 5.2 | 0.00 | 0.00 | 0.00 | 89 | 1013.5 |
| 20260508103148 | 69 | 72 | 5.2 | 6.1 | 0.00 | 0.00 | 0.00 | 89 | 1013.5 |
| 20260508102650 | 69 | 357 | 1.7 | 6.1 | 0.00 | 0.00 | 0.00 | 89 | 1013.5 |
| 20260508102150 | 69 | 67 | 4.3 | 7.0 | 0.00 | 0.00 | 0.00 | 89 | 1013.5 |
| 20260508101650 | 69 | 52 | 5.2 | 7.8 | 0.00 | 0.00 | 0.00 | 90 | 1013.2 |
| 20260508101149 | 69 | 68 | 7.8 | 9.6 | 0.00 | 0.00 | 0.00 | 90 | 1012.9 |
| 20260508100646 | 69 | 93 | 2.6 | 5.2 | 0.00 | 0.00 | 0.00 | 90 | 1012.9 |
| 20260508100150 | 70 | 59 | 5.2 | 6.1 | 0.00 | 0.00 | 0.00 | 90 | 1012.9 |
| 20260508095648 | 70 | 70 | 4.3 | 8.7 | 0.00 | 0.00 | 0.00 | 90 | 1012.9 |
| 20260508095149 | 70 | 47 | 2.6 | 7.0 | 0.00 | 0.00 | 0.00 | 90 | 1012.9 |
| 20260508094646 | 70 | 56 | 4.3 | 7.8 | 0.00 | 0.00 | 0.00 | 90 | 1012.9 |
| 20260508094151 | 70 | 69 | 3.5 | 8.7 | 0.00 | 0.00 | 0.00 | 90 | 1012.9 |
| 20260508093649 | 70 | 50 | 6.1 | 7.0 | 0.00 | 0.00 | 0.00 | 90 | 1012.9 |
| 20260508093151 | 70 | 66 | 4.3 | 6.1 | 0.00 | 0.00 | 0.00 | 89 | 1013.2 |
| 20260508092651 | 70 | 39 | 4.3 | 5.2 | 0.00 | 0.00 | 0.00 | 90 | 1012.9 |
| 20260508092149 | 70 | 0 | 1.7 | 7.8 | 0.00 | 0.00 | 0.00 | 90 | 1012.9 |
| 20260508091650 | 70 | 41 | 2.6 | 7.8 | 0.00 | 0.00 | 0.00 | 90 | 1012.9 |
| 20260508091149 | 71 | 46 | 3.5 | 5.2 | 0.00 | 0.00 | 0.00 | 89 | 1012.9 |
| 20260508090650 | 71 | 53 | 3.5 | 6.1 | 0.00 | 0.00 | 0.00 | 90 | 1012.5 |
| 20260508090149 | 71 | 58 | 6.1 | 7.8 | 0.00 | 0.00 | 0.00 | 90 | 1012.9 |
| 20260508085647 | 71 | 31 | 2.6 | 7.0 | 0.00 | 0.00 | 0.00 | 90 | 1012.9 |
| 20260508085149 | 71 | 57 | 4.3 | 7.8 | 0.00 | 0.00 | 0.00 | 89 | 1012.9 |
| 20260508084649 | 71 | 17 | 6.1 | 7.8 | 0.00 | 0.00 | 0.00 | 89 | 1012.9 |
| 20260508084148 | 71 | 347 | 1.7 | 4.3 | 0.00 | 0.00 | 0.00 | 89 | 1012.9 |
| 20260508083649 | 71 | 43 | 4.3 | 7.0 | 0.00 | 0.00 | 0.00 | 88 | 1012.5 |
| 20260508083147 | 72 | 44 | 3.5 | 5.2 | 0.00 | 0.00 | 0.00 | 88 | 1012.9 |
| 20260508082647 | 71 | 39 | 2.6 | 5.2 | 0.00 | 0.00 | 0.00 | 89 | 1012.9 |
| 20260508082149 | 71 | 50 | 1.7 | 5.2 | 0.00 | 0.00 | 0.00 | 89 | 1012.9 |
| 20260508081650 | 72 | 46 | 2.6 | 6.1 | 0.00 | 0.00 | 0.00 | 88 | 1012.5 |
| 20260508081146 | 72 | 63 | 3.5 | 4.3 | 0.00 | 0.00 | 0.00 | 88 | 1012.9 |
| 20260508080646 | 72 | 65 | 2.6 | 4.3 | 0.00 | 0.00 | 0.00 | 89 | 1012.9 |
| 20260508080147 | 72 | 50 | 2.6 | 4.3 | 0.00 | 0.00 | 0.00 | 88 | 1012.9 |
| 20260508075648 | 72 | 80 | 2.6 | 3.5 | 0.00 | 0.00 | 0.00 | 88 | 1012.9 |
| 20260508075149 | 72 | 58 | 2.6 | 6.1 | 0.00 | 0.00 | 0.00 | 88 | 1013.2 |
| 20260508074646 | 72 | 47 | 4.3 | 5.2 | 0.00 | 0.00 | 0.00 | 88 | 1013.2 |
| 20260508074147 | 72 | 37 | 1.7 | 3.5 | 0.00 | 0.00 | 0.00 | 88 | 1013.2 |
| 20260508073648 | 72 | 7 | 2.6 | 7.0 | 0.00 | 0.00 | 0.00 | 88 | 1012.9 |
| 20260508073151 | 72 | 39 | 3.5 | 5.2 | 0.00 | 0.00 | 0.00 | 89 | 1012.9 |
| 20260508072646 | 72 | 64 | 3.5 | 6.1 | 0.00 | 0.00 | 0.00 | 89 | 1012.9 |
| 20260508072147 | 72 | 74 | 2.6 | 5.2 | 0.00 | 0.00 | 0.00 | 89 | 1012.5 |
| 20260508071646 | 72 | 61 | 1.7 | 3.5 | 0.00 | 0.00 | 0.00 | 88 | 1012.5 |
| 20260508071147 | 72 | 36 | 1.7 | 5.2 | 0.00 | 0.00 | 0.00 | 88 | 1012.9 |
| 20260508070646 | 72 | 44 | 1.7 | 4.3 | 0.00 | 0.00 | 0.00 | 88 | 1012.9 |
| 20260508070148 | 73 | 51 | 2.6 | 5.2 | 0.00 | 0.00 | 0.00 | 88 | 1012.9 |
| 20260508065646 | 72 | 37 | 1.7 | 5.2 | 0.00 | 0.00 | 0.00 | 88 | 1012.9 |
| 20260508065149 | 72 | 38 | 0.9 | 3.5 | 0.00 | 0.00 | 0.00 | 88 | 1012.9 |
| 20260508064650 | 72 | 10 | 2.6 | 5.2 | 0.00 | 0.00 | 0.00 | 88 | 1013.2 |
| 20260508064151 | 73 | 358 | 2.6 | 3.5 | 0.00 | 0.00 | 0.00 | 87 | 1013.2 |
| 20260508063649 | 72 | 35 | 0.0 | 3.5 | 0.00 | 0.00 | 0.00 | 88 | 1012.9 |
| 20260508063150 | 72 | 29 | 1.7 | 2.6 | 0.00 | 0.00 | 0.00 | 88 | 1013.2 |
| 20260508062646 | 72 | 67 | 3.5 | 3.5 | 0.00 | 0.00 | 0.00 | 88 | 1013.2 |
| 20260508062150 | 73 | 25 | 1.7 | 3.5 | 0.00 | 0.00 | 0.00 | 87 | 1013.2 |
| 20260508061646 | 72 | 24 | 0.9 | 3.5 | 0.00 | 0.00 | 0.00 | 88 | 1013.5 |
| 20260508061150 | 72 | 69 | 1.7 | 3.5 | 0.00 | 0.00 | 0.00 | 88 | 1013.2 |
| 20260508060649 | 72 | 64 | 2.6 | 3.5 | 0.00 | 0.00 | 0.00 | 88 | 1013.5 |
| 20260508060148 | 72 | 48 | 1.7 | 4.3 | 0.00 | 0.00 | 0.00 | 88 | 1013.2 |
| 20260508055646 | 72 | 22 | 1.7 | 4.3 | 0.00 | 0.00 | 0.00 | 88 | 1013.5 |
| 20260508055147 | 72 | 54 | 2.6 | 2.6 | 0.00 | 0.00 | 0.00 | 88 | 1013.5 |
| 20260508054648 | 73 | 22 | 3.5 | 4.3 | 0.00 | 0.00 | 0.00 | 87 | 1013.5 |
| 20260508054146 | 72 | 57 | 2.6 | 5.2 | 0.00 | 0.00 | 0.00 | 88 | 1013.5 |
| 20260508053650 | 72 | 26 | 2.6 | 4.3 | 0.00 | 0.00 | 0.00 | 88 | 1013.9 |
| 20260508053150 | 72 | 51 | 4.3 | 6.1 | 0.00 | 0.00 | 0.00 | 88 | 1013.5 |
| 20260508052648 | 72 | 43 | 4.3 | 7.0 | 0.00 | 0.00 | 0.00 | 88 | 1013.5 |
| 20260508052149 | 72 | 45 | 3.5 | 7.0 | 0.00 | 0.00 | 0.00 | 88 | 1013.5 |
| 20260508051647 | 72 | 71 | 5.2 | 6.1 | 0.00 | 0.00 | 0.00 | 88 | 1013.9 |
| 20260508051150 | 73 | 45 | 1.7 | 4.3 | 0.00 | 0.00 | 0.00 | 87 | 1013.9 |
| 20260508050649 | 73 | 34 | 0.9 | 2.6 | 0.00 | 0.00 | 0.00 | 87 | 1013.9 |
| 20260508050149 | 73 | 32 | 4.3 | 4.3 | 0.00 | 0.00 | 0.00 | 88 | 1013.9 |
| 20260508045647 | 72 | 66 | 1.7 | 4.3 | 0.00 | 0.00 | 0.02 | 88 | 1013.9 |
| 20260508044719 | 73 | 40 | 1.7 | 5.2 | 0.00 | 0.00 | 0.02 | 88 | 1013.9 |
| 20260508044147 | 72 | 47 | 2.6 | 4.3 | 0.00 | 0.00 | 0.02 | 89 | 1013.9 |
| 20260508043647 | 72 | 59 | 4.3 | 6.1 | 0.00 | 0.00 | 0.02 | 88 | 1014.2 |
| 20260508043149 | 73 | 39 | 2.6 | 5.2 | 0.00 | 0.00 | 0.02 | 87 | 1014.2 |
| 20260508042647 | 73 | 51 | 2.6 | 4.3 | 0.00 | 0.00 | 0.02 | 88 | 1014.2 |
| 20260508042147 | 73 | 62 | 2.6 | 7.8 | 0.00 | 0.00 | 0.02 | 88 | 1014.2 |
| 20260508041647 | 73 | 358 | 2.6 | 7.8 | 0.00 | 0.00 | 0.02 | 88 | 1014.2 |
| 20260508041146 | 73 | 28 | 2.6 | 6.1 | 0.00 | 0.00 | 0.02 | 87 | 1014.2 |
| 20260508040650 | 73 | 359 | 3.5 | 6.1 | 0.00 | 0.00 | 0.02 | 87 | 1014.2 |
| 20260508040148 | 73 | 358 | 3.5 | 5.2 | 0.00 | 0.00 | 0.02 | 88 | 1014.2 |
| 20260508035646 | 73 | 56 | 5.2 | 8.7 | 0.00 | 0.00 | 0.02 | 87 | 1014.2 |
| 20260508035147 | 73 | 30 | 5.2 | 7.0 | 0.00 | 0.00 | 0.02 | 87 | 1014.6 |
| 20260508034648 | 73 | 45 | 3.5 | 7.8 | 0.00 | 0.00 | 0.02 | 87 | 1014.2 |
| 20260508034146 | 73 | 20 | 2.6 | 8.7 | 0.00 | 0.00 | 0.02 | 87 | 1014.6 |
| 20260508033648 | 74 | 3 | 1.7 | 4.3 | 0.00 | 0.00 | 0.02 | 87 | 1014.6 |
| 20260508033152 | 74 | 7 | 2.6 | 4.3 | 0.00 | 0.00 | 0.02 | 86 | 1014.6 |
| 20260508032646 | 74 | 52 | 2.6 | 6.1 | 0.00 | 0.00 | 0.02 | 85 | 1014.2 |
| 20260508032148 | 74 | 19 | 4.3 | 7.8 | 0.00 | 0.00 | 0.02 | 85 | 1014.2 |
| 20260508031646 | 74 | 42 | 4.3 | 8.7 | 0.00 | 0.00 | 0.02 | 85 | 1014.2 |
| 20260508031147 | 74 | 17 | 3.5 | 7.8 | 0.00 | 0.00 | 0.02 | 84 | 1014.2 |
| 20260508030647 | 75 | 353 | 4.3 | 7.8 | 0.00 | 0.00 | 0.02 | 83 | 1014.2 |
| 20260508030147 | 75 | 0 | 2.6 | 5.2 | 0.00 | 0.00 | 0.02 | 83 | 1014.2 |
| 20260508025648 | 75 | 24 | 3.5 | 7.8 | 0.00 | 0.00 | 0.02 | 83 | 1013.9 |
| 20260508025150 | 75 | 33 | 2.6 | 7.8 | 0.00 | 0.00 | 0.02 | 83 | 1013.9 |
| 20260508024646 | 75 | 26 | 1.7 | 4.3 | 0.00 | 0.00 | 0.02 | 83 | 1013.9 |
| 20260508024147 | 75 | 29 | 4.3 | 7.0 | 0.00 | 0.00 | 0.02 | 83 | 1013.9 |
| 20260508023647 | 75 | 38 | 4.3 | 7.8 | 0.00 | 0.00 | 0.02 | 83 | 1013.9 |
| 20260508023148 | 76 | 33 | 6.1 | 7.8 | 0.00 | 0.00 | 0.02 | 83 | 1014.2 |
| 20260508022331 | 76 | 5 | 1.7 | 6.1 | 0.00 | 0.00 | 0.02 | 83 | 1013.9 |
| 20260508021646 | 76 | 35 | 5.2 | 6.1 | 0.00 | 0.00 | 0.02 | 83 | 1013.9 |
| 20260508021146 | 76 | 19 | 4.3 | 7.0 | 0.00 | 0.00 | 0.02 | 82 | 1013.5 |
| 20260508020647 | 76 | 306 | 0.0 | 4.3 | 0.00 | 0.00 | 0.02 | 82 | 1013.9 |
| 20260508020148 | 76 | 16 | 1.7 | 5.2 | 0.00 | 0.00 | 0.02 | 81 | 1013.5 |
| 20260508015646 | 76 | 338 | 2.6 | 5.2 | 0.00 | 0.00 | 0.02 | 82 | 1013.9 |
| 20260508015146 | 76 | 28 | 2.6 | 7.0 | 0.00 | 0.00 | 0.02 | 82 | 1013.5 |
| 20260508014646 | 76 | 31 | 2.6 | 5.2 | 0.00 | 0.00 | 0.02 | 82 | 1013.2 |
| 20260508014147 | 76 | 347 | 2.6 | 4.3 | 0.00 | 0.00 | 0.02 | 82 | 1013.2 |
| 20260508013648 | 76 | 23 | 5.2 | 6.1 | 0.00 | 0.00 | 0.02 | 82 | 1013.2 |
| 20260508013147 | 76 | 35 | 2.6 | 4.3 | 0.00 | 0.00 | 0.02 | 82 | 1013.5 |
| 20260508012647 | 76 | 50 | 4.3 | 6.1 | 0.00 | 0.00 | 0.02 | 83 | 1013.5 |
| 20260508012146 | 76 | 2 | 2.6 | 3.5 | 0.00 | 0.00 | 0.02 | 84 | 1013.2 |
| 20260508011647 | 76 | 36 | 5.2 | 6.1 | 0.00 | 0.00 | 0.02 | 84 | 1013.2 |
| 20260508011147 | 76 | 38 | 3.5 | 7.0 | 0.00 | 0.00 | 0.02 | 84 | 1013.2 |
| 20260508010650 | 76 | 52 | 5.2 | 6.1 | 0.00 | 0.00 | 0.02 | 84 | 1012.9 |
| 20260508010147 | 76 | 36 | 1.7 | 5.2 | 0.00 | 0.00 | 0.02 | 84 | 1013.2 |
| 20260508005646 | 76 | 343 | 1.7 | 3.5 | 0.00 | 0.00 | 0.02 | 84 | 1013.2 |
| 20260508005147 | 76 | 28 | 3.5 | 6.1 | 0.00 | 0.00 | 0.02 | 85 | 1012.9 |
| 20260508004646 | 76 | 21 | 6.1 | 6.1 | 0.00 | 0.00 | 0.02 | 85 | 1013.2 |
| 20260508004146 | 76 | 20 | 2.6 | 6.1 | 0.00 | 0.00 | 0.02 | 85 | 1012.9 |
| 20260508003650 | 76 | 42 | 2.6 | 5.2 | 0.00 | 0.00 | 0.02 | 86 | 1012.9 |
| 20260508003146 | 76 | 35 | 3.5 | 5.2 | 0.00 | 0.00 | 0.02 | 85 | 1012.9 |
| 20260508002647 | 76 | 17 | 3.5 | 6.1 | 0.00 | 0.00 | 0.02 | 85 | 1012.9 |
| 20260508002146 | 76 | 350 | 1.7 | 4.3 | 0.00 | 0.00 | 0.02 | 85 | 1012.9 |
| 20260508001647 | 76 | 35 | 1.7 | 2.6 | 0.00 | 0.00 | 0.02 | 85 | 1012.9 |
| 20260508001146 | 76 | 46 | 1.7 | 4.3 | 0.00 | 0.00 | 0.02 | 84 | 1012.9 |
| 20260508000646 | 76 | 50 | 3.5 | 4.3 | 0.00 | 0.00 | 0.02 | 84 | 1012.9 |
| 20260508000147 | 76 | 29 | 2.6 | 5.2 | 0.00 | 0.00 | 0.02 | 83 | 1012.9 |
| 20260507235647 | 76 | 8 | 2.6 | 3.5 | 0.00 | 0.00 | 0.02 | 84 | 1012.5 |
| 20260507235146 | 76 | 354 | 0.0 | 3.5 | 0.00 | 0.00 | 0.02 | 84 | 1012.9 |
| 20260507234647 | 76 | 7 | 1.7 | 4.3 | 0.00 | 0.00 | 0.02 | 83 | 1012.9 |
| 20260507234146 | 76 | 48 | 2.6 | 6.1 | 0.00 | 0.00 | 0.02 | 83 | 1012.9 |
| 20260507233647 | 77 | 322 | 3.5 | 4.3 | 0.00 | 0.00 | 0.02 | 82 | 1012.9 |
| 20260507233148 | 76 | 338 | 2.6 | 5.2 | 0.00 | 0.00 | 0.02 | 83 | 1012.9 |
| 20260507232648 | 76 | 1 | 3.5 | 4.3 | 0.00 | 0.00 | 0.02 | 82 | 1012.9 |
| 20260507232147 | 77 | 357 | 1.7 | 6.1 | 0.00 | 0.00 | 0.02 | 82 | 1012.9 |
| 20260507231647 | 77 | 33 | 3.5 | 5.2 | 0.00 | 0.00 | 0.02 | 81 | 1012.9 |
| 20260507231147 | 77 | 338 | 3.5 | 5.2 | 0.00 | 0.00 | 0.02 | 81 | 1012.9 |